Погода в Караколе

Россия / Республика Алтай     51°17′24″N   84°34′58″E
темп.,
°C
ветер,
м/с
пор.,
м/с
влажн.,
%
обл.,
%
осадки,
мм/ч
давл.,
гПа
погр.,
м
18 мая, вт
вт1801:00+8з119218 0.7 101710
04:00+7юз229137 0.0 101620
07:00+9юз23883 0.0 101575
10:00+15зюз375465 0.4 10121395
13:00+13зюз396951 2.6 1012636
16:00+17з610525 0.9 10101835
19:00+14юз456799 1.7 1011394
22:00+8ююз359298 2.8 1011107
19 мая, ср
ср1901:00+8юз358843 3.0 101098
04:00+9юз3684100 0.4 1008137
07:00+9юз358699 0.8 1006100
10:00+13з386687 0.7 10051357
13:00+12зюз2776100 2.2 10041048
16:00+8сз3697100 15.4 1005858
19:00+7зсз1293100 17.6 1006255
22:00+5с2398100 2.4 1007280
20 мая, чт
чт2001:00+4ссз2398100 4.1 1007699
04:00+2с2499100 2.9 1008290
07:00+1ссз2499100 4.1 1008263
10:00−2ссз3794100 3.3 1012784
13:00−1ссз4778100 5.1 10141519
16:000ссз4770100 1.1 10141710
19:00−1ссз2486100 2.9 1016599
22:00−3сз2496100 4.1 1019284
21 мая, пт
пт2101:00−5ссз2498100 6.4 1021281
04:00−7сз239889 1.0 102492
07:00−6ссз12905 1.1 1026131
10:00−3ссв247395 0.0 10261165
13:00−1с357283 0.1 10261393
16:000с357599 0.2 10261309
19:000ссв247964 0.4 1027899
22:00−6юз119540 0.0 103111
22 мая, сб
сб2201:00−6юз21905 0.0 103117
04:00−6ююз218825 0.0 103016
07:00−3ю238143 0.0 102883
10:00+3ю116055 0.0 1025531
13:00+7з1251100 0.0 10221273
16:00+7ссз2253100 0.0 10211397
19:00+4с1183100 0.1 1023174
22:00−2юз2196100 0.1 102614